[[{"header":{"parameterUnit":"m.s-1","parameterCategory":2,"la1":30.2992,"la2":30.254,"lo1":-89.0895,"lo2":-89.0443,"dy":0.0025,"dx":0.0025,"nx":19,"ny":19,"refTime":"2026-03-12T21:00:00:Z","depth":"0","parameterNumber":2,"parameterNumberName":"U-component_of_CURRENTS"},"data":[0,0,0,-0.0376,-0.0376,-0.0369,-0.0369,-0.0332,-0.0332,0,0,0,0,0,0,0,0,0,0,0,-0.0373,-0.0373,-0.0376,-0.0376,-0.0369,-0.0369,-0.0332,-0.0332,0,0,0,0,0,0,0,0,0,0,0,-0.0373,-0.0373,-0.0373,-0.0376,-0.0369,-0.0369,-0.0332,-0.0343,0,0,0,0,0,0,0,0,0,0,-0.0352,-0.0354,-0.0373,-0.0373,-0.0376,-0.0369,-0.0369,-0.0343,-0.0342,-0.0329,0,-0.033,0,-0.0335,-0.0329,-0.0329,0,0,0,-0.0368,-0.0356,-0.0358,-0.0373,-0.0376,-0.0369,-0.037,-0.0343,-0.0341,-0.0327,-0.033,-0.0329,-0.0335,-0.0329,-0.0329,-0.0298,-0.0297,0,0,-0.0369,-0.0366,-0.0359,-0.0357,-0.0376,-0.037,-0.037,-0.0342,-0.0338,-0.033,-0.0328,-0.0334,-0.0329,-0.0329,-0.0298,-0.0298,0,0,0,-0.0375,-0.0367,-0.037,-0.0358,-0.0362,-0.037,-0.037,-0.0339,-0.0341,-0.0328,-0.0333,-0.0329,-0.0328,-0.0298,-0.0298,-0.0338,0,0,0,-0.0375,-0.0371,-0.037,-0.0368,-0.0363,-0.0354,-0.0368,-0.0343,-0.034,-0.0334,-0.0329,-0.0328,-0.0298,-0.0298,-0.0337,-0.0357,0,0,0,-0.0373,-0.0371,-0.0372,-0.0368,-0.0369,-0.0355,-0.0355,-0.0343,-0.0344,-0.0329,-0.0328,-0.0298,-0.0298,-0.0337,-0.0355,-0.0432,0,0,0,-0.0368,-0.0371,-0.0371,-0.0374,-0.037,-0.0364,-0.0356,-0.0344,-0.0332,-0.0328,-0.0298,-0.0298,-0.0336,-0.0354,-0.043,-0.0615,-0.064,0,0,-0.0371,-0.0371,-0.0374,-0.0374,-0.037,-0.0364,-0.0362,-0.0342,-0.0325,-0.0304,-0.0303,-0.0338,-0.0355,-0.0431,-0.0605,-0.0631,0,0,0,-0.0374,-0.0375,-0.0373,-0.0371,-0.0366,-0.037,-0.0351,-0.0348,-0.0336,-0.0319,-0.0323,-0.0332,-0.038,-0.0486,-0.0506,-0.0517,-0.0297,-0.0297,-0.0297,-0.0379,-0.0376,-0.0375,-0.0372,-0.037,-0.0366,-0.0375,-0.0364,-0.0341,-0.0343,-0.0354,-0.0422,-0.0534,-0.0552,-0.0559,-0.034,-0.034,-0.034,-0.034,-0.0384,-0.038,-0.0379,-0.0375,-0.0377,-0.0374,-0.0389,-0.0389,-0.0423,-0.0376,-0.0421,-0.0509,-0.0577,-0.0576,-0.0343,-0.0342,-0.0342,-0.0342,-0.0342,-0.0384,-0.0378,-0.0381,-0.0374,-0.0376,-0.038,-0.0418,-0.0428,-0.046,-0.0496,-0.0644,-0.0646,-0.066,-0.0533,-0.0533,-0.0533,-0.0534,-0.0534,-0.0534,-0.0376,-0.0377,-0.0371,-0.0369,-0.036,-0.0372,-0.0435,-0.0501,-0.0654,-0.0708,-0.071,-0.0694,-0.0482,-0.0491,-0.0541,-0.054,-0.0539,-0.0538,-0.0538,-0.0353,-0.036,-0.0351,-0.0343,-0.0331,-0.0363,-0.0454,-0.0719,-0.0825,-0.0958,-0.0995,-0.0841,-0.0857,-0.0842,-0.086,-0.1003,-0.1003,-0.1003,-0.1003,-0.0332,-0.0338,-0.032,-0.0304,-0.0299,-0.0348,-0.0581,-0.0865,-0.1131,-0.1236,-0.1186,-0.1171,-0.1152,-0.118,-0.1158,-0.1179,-0.1399,-0.1399,-0.1399,-0.0304,-0.031,-0.0285,-0.0281,-0.0269,-0.0352,-0.0608,-0.1025,-0.1372,-0.1405,-0.1162,-0.1145,-0.1103,-0.1072,-0.1094,-0.1062,-0.1088,0,0]},{"header":{"parameterUnit":"m.s-1","parameterCategory":2,"la1":30.2992,"la2":30.254,"lo1":-89.0895,"lo2":-89.0443,"dy":0.0025,"dx":0.0025,"nx":19,"ny":19,"refTime":"2026-03-12T21:00:00:Z","depth":"0","parameterNumber":3,"parameterNumberName":"V-component_of_CURRENTS"},"data":[0,0,0,-0.0332,-0.0332,-0.0322,-0.0322,-0.0266,-0.0265,0,0,0,0,0,0,0,0,0,0,0,-0.034,-0.034,-0.0332,-0.0332,-0.0322,-0.0322,-0.0266,-0.0265,0,0,0,0,0,0,0,0,0,0,0,-0.034,-0.034,-0.0339,-0.0332,-0.0322,-0.0322,-0.0266,-0.0285,0,0,0,0,0,0,0,0,0,0,-0.0301,-0.0319,-0.034,-0.0339,-0.0331,-0.0322,-0.0322,-0.0287,-0.0284,-0.0256,0,-0.0256,0,-0.0254,-0.026,-0.026,0,0,0,-0.0336,-0.0321,-0.031,-0.0339,-0.0331,-0.0322,-0.0327,-0.0286,-0.0282,-0.0253,-0.0255,-0.0253,-0.0253,-0.0259,-0.0259,-0.0237,-0.0237,0,0,-0.0336,-0.0344,-0.0312,-0.0308,-0.0329,-0.0328,-0.0327,-0.0284,-0.0285,-0.0255,-0.0252,-0.0252,-0.0259,-0.0258,-0.0237,-0.0237,0,0,0,-0.0335,-0.0344,-0.0336,-0.031,-0.0309,-0.0327,-0.0327,-0.0287,-0.0282,-0.0252,-0.0251,-0.0259,-0.0258,-0.0236,-0.0237,-0.0277,0,0,0,-0.0336,-0.0343,-0.0336,-0.0341,-0.031,-0.0305,-0.033,-0.0285,-0.028,-0.0252,-0.0258,-0.0257,-0.0236,-0.0236,-0.0275,-0.0303,0,0,0,-0.034,-0.0344,-0.0341,-0.0341,-0.0334,-0.0306,-0.0299,-0.0284,-0.0279,-0.026,-0.0257,-0.0236,-0.0236,-0.0273,-0.0299,-0.0265,0,0,0,-0.035,-0.0361,-0.0341,-0.0357,-0.0334,-0.0351,-0.03,-0.0306,-0.0297,-0.0258,-0.0236,-0.0237,-0.0273,-0.0297,-0.0264,-0.0226,-0.0227,0,0,-0.0371,-0.0364,-0.0374,-0.0356,-0.0387,-0.0353,-0.0377,-0.0337,-0.0296,-0.0246,-0.0246,-0.0276,-0.0299,-0.0264,-0.0271,-0.0271,0,0,0,-0.0387,-0.0395,-0.0402,-0.0412,-0.0413,-0.0417,-0.0384,-0.0357,-0.0315,-0.0291,-0.028,-0.0294,-0.027,-0.0246,-0.0246,-0.0054,-0.024,-0.024,-0.024,-0.042,-0.0425,-0.0455,-0.0463,-0.0474,-0.046,-0.0449,-0.0402,-0.0356,-0.0343,-0.033,-0.0339,-0.0316,-0.0315,-0.0119,-0.0328,-0.0328,-0.0328,-0.0328,-0.0462,-0.0485,-0.0495,-0.0524,-0.0526,-0.0537,-0.0495,-0.0457,-0.0396,-0.0372,-0.0345,-0.0295,-0.0317,-0.0108,-0.0331,-0.0331,-0.033,-0.033,-0.033,-0.0493,-0.0507,-0.0518,-0.0557,-0.0583,-0.0576,-0.0576,-0.0524,-0.0435,-0.0419,-0.0336,-0.0335,-0.0143,-0.0382,-0.0382,-0.0382,-0.0382,-0.0382,-0.0382,-0.0519,-0.0533,-0.056,-0.0594,-0.062,-0.0643,-0.0614,-0.057,-0.0456,-0.0382,-0.0381,-0.0124,-0.0355,-0.0344,-0.0382,-0.0382,-0.0382,-0.0382,-0.0382,-0.057,-0.0556,-0.0599,-0.0626,-0.0686,-0.0728,-0.07,-0.0589,-0.0498,-0.0421,-0.0086,-0.034,-0.0313,-0.0312,-0.03,-0.0324,-0.0324,-0.0324,-0.0324,-0.0592,-0.0591,-0.0632,-0.068,-0.0738,-0.0772,-0.0768,-0.0626,-0.0258,-0.0032,0.0046,0.0087,0.0076,0.0129,0.012,0.0142,0.0231,0.0232,0.0233,-0.0622,-0.0625,-0.0659,-0.0693,-0.0764,-0.0817,-0.0824,-0.0635,-0.0027,0.0276,0.031,0.0286,0.0364,0.0331,0.0426,0.0398,0.0438,0,0]}],[{"header":{"parameterUnit":"m.s-1","parameterCategory":2,"la1":30.2992,"la2":30.254,"lo1":-89.0895,"lo2":-89.0443,"dy":0.0025,"dx":0.0025,"nx":19,"ny":19,"refTime":"2026-03-12T21:00:00:Z","depth":"2","parameterNumber":2,"parameterNumberName":"U-component_of_CURRENTS"},"data":[0,0,0,-0.0759,-0.0759,-0.077,-0.077,-0.0724,-0.0724,0,0,0,0,0,0,0,0,0,0,0,-0.0746,-0.0746,-0.0758,-0.0759,-0.077,-0.077,-0.0725,-0.0724,0,0,0,0,0,0,0,0,0,0,0,-0.0746,-0.0746,-0.0747,-0.0759,-0.077,-0.077,-0.0725,-0.0728,0,0,0,0,0,0,0,0,0,0,-0.0723,-0.0719,-0.0746,-0.0747,-0.076,-0.077,-0.077,-0.0728,-0.0727,-0.0707,0,-0.0715,0,-0.0728,-0.0721,-0.0721,0,0,0,-0.0744,-0.0719,-0.0734,-0.0747,-0.076,-0.077,-0.0761,-0.0728,-0.0727,-0.0706,-0.0715,-0.0714,-0.0727,-0.0721,-0.0721,-0.0696,-0.0696,0,0,-0.0744,-0.0734,-0.0735,-0.0733,-0.077,-0.0761,-0.0762,-0.0728,-0.0722,-0.0715,-0.0713,-0.0726,-0.072,-0.072,-0.0696,-0.0696,0,0,0,-0.0752,-0.0733,-0.0749,-0.0735,-0.0747,-0.0761,-0.0762,-0.0723,-0.0732,-0.0713,-0.0726,-0.072,-0.072,-0.0696,-0.0696,-0.0739,0,0,0,-0.0751,-0.074,-0.0749,-0.0741,-0.0748,-0.0742,-0.0757,-0.0733,-0.0731,-0.0726,-0.072,-0.0719,-0.0696,-0.0696,-0.0737,-0.0762,0,0,0,-0.0745,-0.0739,-0.0745,-0.0741,-0.0755,-0.0743,-0.0749,-0.0733,-0.0739,-0.0721,-0.0719,-0.0696,-0.0696,-0.0736,-0.076,-0.0824,0,0,0,-0.0727,-0.0739,-0.0745,-0.0763,-0.0755,-0.0777,-0.075,-0.0749,-0.0737,-0.072,-0.0696,-0.0696,-0.0736,-0.0758,-0.0822,-0.0903,-0.092,0,0,-0.0735,-0.074,-0.0754,-0.076,-0.0788,-0.0774,-0.079,-0.0758,-0.073,-0.0699,-0.0699,-0.0738,-0.076,-0.0824,-0.0912,-0.0929,0,0,0,-0.0753,-0.0759,-0.0771,-0.0787,-0.0803,-0.0816,-0.079,-0.0777,-0.075,-0.0727,-0.0729,-0.0741,-0.0781,-0.0824,-0.0838,-0.0696,-0.0696,-0.0696,-0.0696,-0.0739,-0.076,-0.0783,-0.081,-0.0824,-0.0833,-0.084,-0.0813,-0.0773,-0.0767,-0.0769,-0.0837,-0.0882,-0.0894,-0.0758,-0.0758,-0.0758,-0.0758,-0.0758,-0.0749,-0.0762,-0.0792,-0.0816,-0.0841,-0.0842,-0.0864,-0.0849,-0.0859,-0.0801,-0.0838,-0.0858,-0.0911,-0.0761,-0.0761,-0.076,-0.076,-0.076,-0.0759,-0.0733,-0.0743,-0.0757,-0.0789,-0.0816,-0.0841,-0.0886,-0.0889,-0.0897,-0.0928,-0.0987,-0.0987,-0.0888,-0.0947,-0.0947,-0.0948,-0.0948,-0.0948,-0.0949,-0.0698,-0.0721,-0.0726,-0.0765,-0.0772,-0.0814,-0.089,-0.0951,-0.1043,-0.1048,-0.1049,-0.0902,-0.0895,-0.0899,-0.0955,-0.0954,-0.0953,-0.0952,-0.0952,-0.0668,-0.0669,-0.0679,-0.0686,-0.0735,-0.0814,-0.0911,-0.1125,-0.1192,-0.1281,-0.1133,-0.1126,-0.1129,-0.1118,-0.1127,-0.1239,-0.1239,-0.1239,-0.1239,-0.063,-0.0642,-0.0637,-0.0652,-0.0708,-0.0814,-0.0998,-0.1115,-0.123,-0.1206,-0.1206,-0.1156,-0.1148,-0.1147,-0.1135,-0.1141,-0.1257,-0.1256,-0.1256,-0.0601,-0.0609,-0.0597,-0.0631,-0.0692,-0.0842,-0.1001,-0.1036,-0.1121,-0.1246,-0.1099,-0.1261,-0.1189,-0.1175,-0.117,-0.1152,-0.1161,0,0]},{"header":{"parameterUnit":"m.s-1","parameterCategory":2,"la1":30.2992,"la2":30.254,"lo1":-89.0895,"lo2":-89.0443,"dy":0.0025,"dx":0.0025,"nx":19,"ny":19,"refTime":"2026-03-12T21:00:00:Z","depth":"2","parameterNumber":3,"parameterNumberName":"V-component_of_CURRENTS"},"data":[0,0,0,0.0055,0.0056,0.0107,0.0107,0.0178,0.0178,0,0,0,0,0,0,0,0,0,0,0,0.0027,0.0027,0.0054,0.0056,0.0106,0.0107,0.0177,0.0178,0,0,0,0,0,0,0,0,0,0,0,0.0027,0.0027,0.0028,0.0056,0.0106,0.0107,0.0177,0.0137,0,0,0,0,0,0,0,0,0,0,0.0087,0.0058,0.0027,0.0028,0.0056,0.0106,0.0107,0.0135,0.0139,0.0157,0,0.016,0,0.0177,0.0183,0.0184,0,0,0,0.0053,0.0054,0.0074,0.0028,0.0057,0.0106,0.0083,0.0137,0.0143,0.0163,0.0161,0.0164,0.0178,0.0184,0.0184,0.0249,0.0249,0,0,0.005,0.0033,0.007,0.0077,0.0065,0.0081,0.0085,0.014,0.014,0.0162,0.0166,0.0179,0.0184,0.0185,0.0249,0.0249,0,0,0,0.0044,0.0031,0.0049,0.0073,0.0086,0.0083,0.0087,0.0137,0.0145,0.0167,0.018,0.0185,0.0186,0.0249,0.0249,0.0212,0,0,0,0.0042,0.0028,0.0048,0.0038,0.0085,0.0111,0.0082,0.0141,0.0148,0.018,0.0185,0.0187,0.0249,0.0249,0.0212,0.0182,0,0,0,0.0026,0.0026,0.0032,0.0037,0.0062,0.0111,0.0121,0.0142,0.0156,0.0184,0.0187,0.0249,0.0249,0.0213,0.0183,0.0179,0,0,0,0.0008,0.0006,0.0031,0.0031,0.0061,0.0101,0.0121,0.0146,0.0166,0.0185,0.0249,0.0249,0.0213,0.0185,0.0179,0.015,0.0143,0,0,-0.0004,0.0004,0.0004,0.0028,0.0061,0.0094,0.0125,0.0154,0.0179,0.023,0.0232,0.0212,0.0184,0.0179,0.0169,0.0161,0,0,0,-0.0007,-0.0008,0.0008,0.0029,0.007,0.0101,0.0142,0.0164,0.0194,0.0195,0.023,0.0213,0.0211,0.0196,0.019,0.0251,0.0251,0.0251,0.0251,-0.0044,-0.0022,-0.0013,0.0021,0.0047,0.011,0.0133,0.0171,0.0197,0.0203,0.0196,0.0182,0.0167,0.0162,0.0219,0.0219,0.0219,0.0219,0.0219,-0.0071,-0.0069,-0.0039,-0.0028,0.0021,0.0045,0.0114,0.0135,0.0168,0.0186,0.0186,0.0173,0.0153,0.0216,0.0217,0.0217,0.0217,0.0217,0.0218,-0.0098,-0.0093,-0.0096,-0.0082,-0.0061,-0.0007,0.0003,0.0061,0.0117,0.0122,0.0116,0.0116,0.0147,0.012,0.012,0.012,0.012,0.012,0.012,-0.0131,-0.0127,-0.0141,-0.0131,-0.0134,-0.0124,-0.0069,-0.0042,0.0019,0.0066,0.0066,0.0149,0.0152,0.0143,0.0117,0.0118,0.0118,0.0118,0.0118,-0.0152,-0.0165,-0.0189,-0.02,-0.021,-0.0238,-0.0188,-0.0137,-0.0085,-0.0055,0.0049,0.0052,0.0061,0.0066,0.0055,0.0008,0.0008,0.0008,0.0008,-0.0173,-0.0175,-0.0225,-0.0253,-0.0275,-0.0285,-0.0321,-0.0263,-0.0138,-0.0075,-0.0071,-0.0059,-0.0053,-0.0049,-0.0041,-0.0053,-0.0128,-0.0129,-0.0129,-0.0183,-0.0203,-0.0235,-0.0269,-0.0303,-0.0347,-0.0401,-0.0379,-0.0224,-0.0135,-0.0099,-0.0,0.0029,0.0034,0.0052,0.006,0.0045,0,0]}],[{"header":{"parameterUnit":"m.s-1","parameterCategory":2,"la1":30.2992,"la2":30.254,"lo1":-89.0895,"lo2":-89.0443,"dy":0.0025,"dx":0.0025,"nx":19,"ny":19,"refTime":"2026-03-12T21:00:00:Z","depth":"4","parameterNumber":2,"parameterNumberName":"U-component_of_CURRENTS"},"data":[0,0,0,-0.0758,-0.0759,-0.0835,-0.0836,-0.0874,-0.0874,0,0,0,0,0,0,0,0,0,0,0,-0.0736,-0.0736,-0.0758,-0.076,-0.0835,-0.0836,-0.0874,-0.0874,0,0,0,0,0,0,0,0,0,0,0,-0.0735,-0.0736,-0.0737,-0.076,-0.0835,-0.0836,-0.0874,-0.0832,0,0,0,0,0,0,0,0,0,0,-0.0766,-0.0754,-0.0736,-0.0737,-0.076,-0.0835,-0.0836,-0.0831,-0.0834,-0.0822,0,-0.0839,0,-0.0853,-0.0875,-0.0875,0,0,0,-0.0762,-0.0751,-0.0769,-0.0737,-0.0761,-0.0835,-0.0802,-0.0833,-0.0838,-0.0827,-0.084,-0.0842,-0.0854,-0.0875,-0.0875,-0.091,-0.0911,0,0,-0.0758,-0.075,-0.0766,-0.0772,-0.0786,-0.0799,-0.0804,-0.0837,-0.0843,-0.084,-0.0843,-0.0855,-0.0875,-0.0875,-0.091,-0.091,0,0,0,-0.0744,-0.0747,-0.0766,-0.077,-0.0786,-0.0802,-0.0807,-0.0842,-0.0848,-0.0843,-0.0855,-0.0875,-0.0876,-0.091,-0.091,-0.0939,0,0,0,-0.0742,-0.0739,-0.0764,-0.0759,-0.0786,-0.0823,-0.0812,-0.0846,-0.085,-0.0855,-0.0875,-0.0876,-0.091,-0.091,-0.0938,-0.0954,0,0,0,-0.0731,-0.0737,-0.0748,-0.0759,-0.079,-0.0823,-0.0832,-0.0848,-0.0857,-0.0875,-0.0876,-0.0909,-0.091,-0.0936,-0.0952,-0.0979,0,0,0,-0.0718,-0.0735,-0.0748,-0.0775,-0.0789,-0.0834,-0.0832,-0.0868,-0.0886,-0.0875,-0.091,-0.091,-0.0936,-0.095,-0.0977,-0.0857,0,0,0,-0.0729,-0.0736,-0.0752,-0.0765,-0.0805,-0.0823,-0.0867,-0.089,-0.089,-0.0894,-0.0896,-0.0938,-0.0952,-0.0979,-0.0896,0,0,0,0,-0.0749,-0.0761,-0.0775,-0.0806,-0.0836,-0.0873,-0.0897,-0.0907,-0.0931,-0.0904,-0.0943,-0.0951,-0.0967,-0.0892,-0.0913,-0.0913,-0.0913,-0.0913,-0.0913,-0.0739,-0.0766,-0.0797,-0.0833,-0.0864,-0.091,-0.0939,-0.0956,-0.0949,-0.0966,-0.0978,-0.1024,-0.0946,-0.098,-0.098,-0.098,-0.098,-0.0981,-0.0981,-0.0749,-0.0761,-0.0811,-0.0849,-0.0893,-0.0932,-0.0979,-0.099,-0.1027,-0.1009,-0.1023,-0.0932,-0.0984,-0.0983,-0.0983,-0.0982,-0.0982,-0.0982,-0.0982,-0.0725,-0.0735,-0.0775,-0.0834,-0.0894,-0.0947,-0.1,-0.1038,-0.1055,-0.1079,-0.1003,-0.1049,-0.1043,-0.109,-0.109,-0.109,-0.1091,-0.1091,-0.1091,-0.0672,-0.0716,-0.0747,-0.0815,-0.0856,-0.0923,-0.1017,-0.1045,-0.1083,-0.1029,-0.1095,-0.1061,-0.1057,-0.105,-0.1094,-0.1093,-0.1093,-0.1093,-0.1093,-0.0628,-0.065,-0.0692,-0.0732,-0.0828,-0.087,-0.0977,-0.1009,-0.1035,-0.1011,-0.1,-0.1003,-0.0984,-0.0983,-0.0971,-0.0994,-0.0993,-0.0992,0,-0.0584,-0.0601,-0.0649,-0.07,-0.0756,-0.0839,-0.0858,-0.0911,-0.0938,-0.0905,-0.103,-0.1016,-0.1018,-0.0995,-0.0991,-0.0977,0,0,0,-0.0554,-0.0575,-0.0591,-0.0656,-0.0717,-0.078,-0.0862,-0.0848,-0.0931,-0.0918,-0.0957,-0.0966,-0.1049,-0.1103,-0.1083,-0.1079,-0.1065,0,0]},{"header":{"parameterUnit":"m.s-1","parameterCategory":2,"la1":30.2992,"la2":30.254,"lo1":-89.0895,"lo2":-89.0443,"dy":0.0025,"dx":0.0025,"nx":19,"ny":19,"refTime":"2026-03-12T21:00:00:Z","depth":"4","parameterNumber":3,"parameterNumberName":"V-component_of_CURRENTS"},"data":[0,0,0,0.0211,0.0212,0.0276,0.0276,0.035,0.0351,0,0,0,0,0,0,0,0,0,0,0,0.0192,0.0192,0.0211,0.0212,0.0276,0.0276,0.035,0.0351,0,0,0,0,0,0,0,0,0,0,0,0.0192,0.0192,0.0193,0.0213,0.0276,0.0276,0.035,0.0306,0,0,0,0,0,0,0,0,0,0,0.0246,0.0227,0.0192,0.0193,0.0213,0.0276,0.0277,0.0304,0.0309,0.0316,0,0.0323,0,0.0333,0.0354,0.0355,0,0,0,0.0222,0.0224,0.0237,0.0193,0.0213,0.0276,0.025,0.0307,0.0312,0.0322,0.0324,0.0327,0.0334,0.0355,0.0355,0.0415,0.0415,0,0,0.0219,0.0209,0.0233,0.024,0.0226,0.0248,0.0252,0.031,0.0316,0.0324,0.0328,0.0335,0.0355,0.0356,0.0415,0.0415,0,0,0,0.0202,0.0206,0.0219,0.0237,0.0246,0.025,0.0254,0.0314,0.0317,0.0329,0.0336,0.0356,0.0356,0.0414,0.0415,0.0397,0,0,0,0.02,0.0196,0.0217,0.0213,0.0245,0.0282,0.0256,0.0313,0.032,0.0336,0.0356,0.0357,0.0414,0.0415,0.0397,0.0377,0,0,0,0.019,0.0195,0.02,0.0212,0.0234,0.0281,0.0288,0.0315,0.0323,0.0355,0.0357,0.0414,0.0414,0.0397,0.0378,0.0362,0,0,0,0.0181,0.0183,0.02,0.0208,0.0234,0.0267,0.0288,0.0321,0.0347,0.0356,0.0414,0.0415,0.0397,0.0378,0.0362,0.0267,0,0,0,0.0175,0.0182,0.0186,0.0203,0.0222,0.0259,0.0291,0.0334,0.0358,0.0396,0.0397,0.0397,0.0378,0.0362,0.03,0,0,0,0,0.0179,0.0182,0.0192,0.0209,0.0237,0.0269,0.0315,0.0339,0.0383,0.0375,0.0413,0.0402,0.0392,0.0339,0.0417,0.0417,0.0417,0.0417,0.0417,0.0162,0.0176,0.0185,0.0208,0.0231,0.0283,0.0313,0.0357,0.0382,0.0401,0.04,0.0391,0.0337,0.0421,0.0421,0.0421,0.0421,0.0421,0.0421,0.0149,0.0154,0.0176,0.0186,0.0221,0.0252,0.0313,0.0341,0.0379,0.0401,0.0393,0.034,0.0419,0.042,0.042,0.042,0.042,0.042,0.042,0.0135,0.0138,0.0145,0.016,0.0184,0.0229,0.0246,0.0305,0.035,0.0357,0.0297,0.0375,0.0362,0.0352,0.0351,0.0351,0.0351,0.0351,0.0351,0.0117,0.0124,0.0118,0.0133,0.0138,0.0155,0.0209,0.0219,0.0272,0.0259,0.0345,0.0368,0.037,0.0358,0.0349,0.0349,0.0349,0.035,0.035,0.0105,0.0098,0.0089,0.0086,0.0088,0.0091,0.0135,0.0127,0.0132,0.0121,0.0209,0.0217,0.0209,0.0215,0.0197,0.014,0.0139,0.0137,0,0.009,0.0088,0.0066,0.005,0.0034,0.0055,0.0018,0.0029,0.0075,0.0076,0.0151,0.0253,0.0258,0.0253,0.0256,0.0237,0,0,0,0.0081,0.0073,0.0053,0.0033,0.0009,-0.0006,0.0008,-0.0007,0.0076,0.002,0.0105,0.0113,0.0225,0.0342,0.0348,0.0351,0.0332,0,0]}]]